KLM342 EDDM-EPWR

Flight info

Callsign KLM342
Flight time 0h 54m
Altitude 35000
Route ANKER9E ANKER Y104 MAMOR L132 RUDNO T203 TIVDA DCT LEGAZ DCT LAGAR DCT DINOV
Aircraft B738/M-SDE2E3FGHIR/S

Departure

Time 2026-05-08 09:13
Airport Munich Airport (EDDM)

Arrival

Time 2026-05-08 10:07
Airport Copernicus Wrocław Airport (EPWR)
Time Latitude Longitude Altitude Speed Heading
2026-05-08 08:51 48.35376 11.78331 1498 ft 0 kts 85°
2026-05-08 09:02 48.35375 11.78316 1498 ft 2 kts 85°
2026-05-08 09:02 48.35374 11.78289 1498 ft 3 kts 83°
2026-05-08 09:03 48.35368 11.78261 1498 ft 3 kts 59°
2026-05-08 09:03 48.35354 11.78238 1498 ft 3 kts 34°
2026-05-08 09:03 48.35335 11.78226 1498 ft 3 kts 12°
2026-05-08 09:03 48.35316 11.78225 1498 ft 0 kts 355°
2026-05-08 09:04 48.35308 11.78226 1498 ft 2 kts 355°
2026-05-08 09:04 48.35303 11.78226 1499 ft 0 kts 355°
2026-05-08 09:06 48.35341 11.78202 1499 ft 10 kts 313°
2026-05-08 09:06 48.35353 11.78093 1499 ft 12 kts 265°
2026-05-08 09:06 48.35343 11.77961 1499 ft 14 kts 264°
2026-05-08 09:06 48.35334 11.77827 1499 ft 10 kts 276°
2026-05-08 09:07 48.35380 11.77777 1499 ft 9 kts 348°
2026-05-08 09:07 48.35453 11.77763 1499 ft 12 kts 354°
2026-05-08 09:07 48.35546 11.77748 1499 ft 12 kts 354°
2026-05-08 09:07 48.35638 11.77733 1499 ft 14 kts 354°
2026-05-08 09:08 48.35745 11.77717 1499 ft 15 kts 354°
2026-05-08 09:08 48.35814 11.77706 1499 ft 11 kts 353°
2026-05-08 09:08 48.35876 11.77694 1498 ft 1 kts 353°
2026-05-08 09:08 48.35905 11.77689 1499 ft 8 kts 353°
2026-05-08 09:09 48.35955 11.77643 1499 ft 10 kts 289°
2026-05-08 09:09 48.35958 11.77573 1499 ft 11 kts 265°
2026-05-08 09:09 48.35951 11.77449 1499 ft 13 kts 264°
2026-05-08 09:09 48.35937 11.77306 1499 ft 15 kts 262°
2026-05-08 09:10 48.35926 11.77143 1499 ft 14 kts 265°
2026-05-08 09:10 48.35915 11.76999 1499 ft 12 kts 263°
2026-05-08 09:10 48.35937 11.76875 1499 ft 10 kts 312°
2026-05-08 09:10 48.36004 11.76823 1499 ft 12 kts 347°
2026-05-08 09:11 48.36093 11.76811 1499 ft 14 kts 357°
2026-05-08 09:11 48.36145 11.76807 1499 ft 0 kts 357°
2026-05-08 09:11 48.36167 11.76807 1499 ft 8 kts
2026-05-08 09:11 48.36241 11.76824 1499 ft 13 kts 17°
2026-05-08 09:12 48.36291 11.76941 1499 ft 18 kts 84°
2026-05-08 09:12 48.36334 11.77482 1499 ft 92 kts 84°
2026-05-08 09:12 48.36436 11.78833 1521 ft 163 kts 82°
2026-05-08 09:12 48.36632 11.80618 2029 ft 175 kts 73°
2026-05-08 09:13 48.37395 11.81975 2541 ft 173 kts 34°
2026-05-08 09:13 48.38558 11.82440 3219 ft 174 kts 14°
2026-05-08 09:13 48.39656 11.83288 3819 ft 182 kts 32°
2026-05-08 09:13 48.40758 11.84344 4420 ft 197 kts 32°
2026-05-08 09:14 48.41968 11.85475 5076 ft 213 kts 32°
2026-05-08 09:14 48.43284 11.86699 5730 ft 231 kts 32°
2026-05-08 09:14 48.44697 11.88020 6381 ft 247 kts 32°
2026-05-08 09:14 48.46175 11.89429 7034 ft 255 kts 32°
2026-05-08 09:15 48.47685 11.90893 7667 ft 261 kts 32°
2026-05-08 09:15 48.49253 11.92419 8306 ft 275 kts 32°
2026-05-08 09:15 48.50883 11.94006 8938 ft 283 kts 32°
2026-05-08 09:15 48.52559 11.95638 9565 ft 289 kts 32°
2026-05-08 09:16 48.54259 11.97295 10177 ft 293 kts 31°
2026-05-08 09:16 48.55989 11.98984 10807 ft 302 kts 31°
2026-05-08 09:16 48.57789 12.00694 11430 ft 316 kts 27°
2026-05-08 09:16 48.59828 12.02112 12080 ft 329 kts 20°
2026-05-08 09:17 48.61986 12.03501 12715 ft 345 kts 21°
2026-05-08 09:17 48.64219 12.05008 13359 ft 359 kts 22°
2026-05-08 09:17 48.66543 12.06606 13996 ft 373 kts 22°
2026-05-08 09:17 48.68938 12.08255 14628 ft 383 kts 22°
2026-05-08 09:18 48.71388 12.09944 15249 ft 390 kts 22°
2026-05-08 09:18 48.73876 12.11660 15873 ft 395 kts 22°
2026-05-08 09:18 48.76384 12.13420 16488 ft 398 kts 23°
2026-05-08 09:18 48.78893 12.15231 17104 ft 401 kts 23°
2026-05-08 09:19 48.81430 12.17060 17722 ft 405 kts 23°
2026-05-08 09:19 48.83985 12.18902 18338 ft 408 kts 23°
2026-05-08 09:19 48.86556 12.20758 18952 ft 412 kts 23°
2026-05-08 09:19 48.89157 12.22630 19567 ft 415 kts 23°
2026-05-08 09:20 48.91788 12.24475 20182 ft 419 kts 23°
2026-05-08 09:20 48.94447 12.26344 20794 ft 423 kts 23°
2026-05-08 09:20 48.97138 12.28239 21236 ft 427 kts 22°
2026-05-08 09:20 48.99806 12.30122 21642 ft 429 kts 22°
2026-05-08 09:21 49.02523 12.32041 22085 ft 432 kts 23°
2026-05-08 09:21 49.05257 12.33973 22520 ft 434 kts 23°
2026-05-08 09:22 49.22029 12.45883 25138 ft 452 kts 22°
2026-05-08 09:23 49.24890 12.47923 25574 ft 454 kts 22°
2026-05-08 09:23 49.27764 12.49976 26009 ft 456 kts 22°
2026-05-08 09:23 49.30655 12.52042 26445 ft 458 kts 22°
2026-05-08 09:23 49.33477 12.54223 26853 ft 461 kts 27°
2026-05-08 09:24 49.36147 12.57002 27302 ft 463 kts 34°
2026-05-08 09:24 49.38707 12.59999 27752 ft 464 kts 35°
2026-05-08 09:24 49.41288 12.62989 28173 ft 464 kts 34°
2026-05-08 09:24 49.43804 12.66117 28571 ft 467 kts 40°
2026-05-08 09:25 49.46070 12.69719 28898 ft 470 kts 46°
2026-05-08 09:25 49.48246 12.73461 29215 ft 470 kts 46°
2026-05-08 09:25 49.50442 12.77183 29514 ft 469 kts 45°
2026-05-08 09:25 49.52640 12.80899 29830 ft 469 kts 45°
2026-05-08 09:26 49.54803 12.84559 30137 ft 469 kts 45°
2026-05-08 09:26 49.56996 12.88275 30447 ft 469 kts 45°
2026-05-08 09:26 49.59191 12.92000 30759 ft 469 kts 45°
2026-05-08 09:26 49.61382 12.95723 31071 ft 468 kts 45°
2026-05-08 09:27 49.63568 12.99446 31381 ft 468 kts 45°
2026-05-08 09:27 49.65761 13.03181 31696 ft 468 kts 45°
2026-05-08 09:27 49.67945 13.06911 32005 ft 468 kts 45°
2026-05-08 09:27 49.70123 13.10633 32319 ft 467 kts 45°
2026-05-08 09:28 49.72303 13.14366 32632 ft 467 kts 45°
2026-05-08 09:28 49.74456 13.18056 32936 ft 467 kts 45°
2026-05-08 09:28 49.76632 13.21792 33198 ft 467 kts 45°
2026-05-08 09:28 49.78805 13.25528 33455 ft 466 kts 45°
2026-05-08 09:29 49.80968 13.29251 33715 ft 466 kts 45°
2026-05-08 09:29 49.83134 13.32986 33978 ft 466 kts 45°
2026-05-08 09:29 49.85303 13.36732 34240 ft 466 kts 45°
2026-05-08 09:29 49.87461 13.40465 34500 ft 466 kts 46°
2026-05-08 09:30 49.89622 13.44208 34763 ft 465 kts 45°
2026-05-08 09:30 49.91747 13.47893 35015 ft 464 kts 46°
2026-05-08 09:30 49.93903 13.51637 35146 ft 465 kts 46°
2026-05-08 09:31 49.98199 13.59113 35141 ft 463 kts 46°
2026-05-08 09:31 50.02489 13.66603 35138 ft 462 kts 46°
2026-05-08 09:32 50.06756 13.74073 35141 ft 462 kts 46°
2026-05-08 09:32 50.11018 13.81556 35142 ft 463 kts 46°
2026-05-08 09:33 50.15290 13.89080 35141 ft 463 kts 46°
2026-05-08 09:33 50.19553 13.96608 35143 ft 463 kts 46°
2026-05-08 09:34 50.23523 14.03639 35143 ft 463 kts 46°
2026-05-08 09:34 50.26699 14.09278 35143 ft 463 kts 46°
2026-05-08 09:35 50.30944 14.16835 35143 ft 462 kts 46°
2026-05-08 09:35 50.35181 14.24398 35143 ft 462 kts 46°
2026-05-08 09:36 50.39415 14.31980 35144 ft 462 kts 46°
2026-05-08 09:36 50.43640 14.39567 35145 ft 461 kts 46°
2026-05-08 09:37 50.47856 14.47161 35145 ft 461 kts 46°
2026-05-08 09:37 50.52059 14.54753 35147 ft 460 kts 46°
2026-05-08 09:38 50.56252 14.62350 35150 ft 460 kts 47°
2026-05-08 09:38 50.60412 14.69910 35150 ft 459 kts 47°
2026-05-08 09:38 50.62505 14.73720 34971 ft 460 kts 47°
2026-05-08 09:39 50.64595 14.77537 34465 ft 459 kts 47°
2026-05-08 09:39 50.66437 14.81654 33906 ft 463 kts 60°
2026-05-08 09:39 50.67656 14.86354 33466 ft 463 kts 70°
2026-05-08 09:39 50.68687 14.91146 33005 ft 460 kts 69°
2026-05-08 09:40 50.69805 14.95885 32505 ft 461 kts 68°
2026-05-08 09:40 50.70950 15.00618 32016 ft 462 kts 68°
2026-05-08 09:40 50.72086 15.05358 31521 ft 462 kts 68°
2026-05-08 09:40 50.73220 15.10111 31032 ft 462 kts 68°
2026-05-08 09:41 50.74349 15.14843 30426 ft 461 kts 68°
2026-05-08 09:41 50.75475 15.19578 29779 ft 461 kts 67°
2026-05-08 09:41 50.76599 15.24322 29134 ft 461 kts 68°
2026-05-08 09:41 50.77725 15.29074 28491 ft 462 kts 68°
2026-05-08 09:42 50.78849 15.33833 27852 ft 463 kts 68°
2026-05-08 09:42 50.79936 15.38602 27196 ft 458 kts 71°
2026-05-08 09:42 50.80816 15.43386 26536 ft 448 kts 73°
2026-05-08 09:42 50.81674 15.48084 25878 ft 442 kts 72°
2026-05-08 09:43 50.82545 15.52725 25228 ft 437 kts 72°
2026-05-08 09:43 50.83393 15.57255 24586 ft 433 kts 72°
2026-05-08 09:43 50.84244 15.61807 23936 ft 428 kts 72°
2026-05-08 09:43 50.85083 15.66308 23284 ft 424 kts 72°
2026-05-08 09:44 50.85912 15.70763 22636 ft 420 kts 72°
2026-05-08 09:44 50.86731 15.75180 21987 ft 415 kts 72°
2026-05-08 09:44 50.87540 15.79548 21338 ft 411 kts 72°
2026-05-08 09:44 50.88337 15.83865 20691 ft 407 kts 73°
2026-05-08 09:45 50.89126 15.88147 20043 ft 402 kts 72°
2026-05-08 09:45 50.89894 15.92322 19374 ft 386 kts 72°
2026-05-08 09:45 50.90629 15.96334 18709 ft 371 kts 73°
2026-05-08 09:45 50.91336 16.00192 18045 ft 358 kts 72°
2026-05-08 09:46 50.92011 16.03892 17404 ft 352 kts 72°
2026-05-08 09:46 50.92662 16.07623 16743 ft 350 kts 77°
2026-05-08 09:46 50.92832 16.11448 16099 ft 347 kts 91°
2026-05-08 09:46 50.92644 16.15239 15470 ft 344 kts 95°
2026-05-08 09:47 50.92457 16.18995 14819 ft 340 kts 94°
2026-05-08 09:47 50.92301 16.22710 14171 ft 336 kts 94°
2026-05-08 09:47 50.92150 16.26390 13524 ft 333 kts 94°
2026-05-08 09:47 50.92000 16.30035 12879 ft 329 kts 94°
2026-05-08 09:48 50.91851 16.33631 12271 ft 326 kts 94°
2026-05-08 09:48 50.91703 16.37193 12172 ft 316 kts 94°
2026-05-08 09:48 50.91560 16.40620 12095 ft 309 kts 94°
2026-05-08 09:48 50.91419 16.43973 11700 ft 303 kts 94°
2026-05-08 09:49 50.91278 16.47291 11343 ft 300 kts 94°
2026-05-08 09:49 50.91194 16.50589 10996 ft 297 kts 89°
2026-05-08 09:49 50.91283 16.53778 10674 ft 291 kts 86°
2026-05-08 09:49 50.91376 16.56946 10325 ft 285 kts 87°
2026-05-08 09:50 50.91454 16.60064 9985 ft 281 kts 87°
2026-05-08 09:50 50.91526 16.63153 9649 ft 281 kts 87°
2026-05-08 09:50 50.91597 16.66250 9316 ft 280 kts 88°
2026-05-08 09:50 50.91665 16.69322 8982 ft 279 kts 88°
2026-05-08 09:51 50.91732 16.72381 8647 ft 277 kts 88°
2026-05-08 09:51 50.91797 16.75401 8303 ft 270 kts 88°
2026-05-08 09:51 50.91860 16.78342 7956 ft 264 kts 88°
2026-05-08 09:51 50.91921 16.81218 7614 ft 259 kts 88°
2026-05-08 09:52 50.91979 16.84016 7284 ft 256 kts 88°
2026-05-08 09:52 50.92037 16.86819 7189 ft 256 kts 88°
2026-05-08 09:52 50.92095 16.89645 7177 ft 257 kts 88°
2026-05-08 09:52 50.92151 16.92459 7165 ft 252 kts 88°
2026-05-08 09:53 50.92206 16.95206 7164 ft 247 kts 88°
2026-05-08 09:53 50.92259 16.97916 7165 ft 244 kts 88°
2026-05-08 09:53 50.92310 17.00559 7172 ft 238 kts 88°
2026-05-08 09:53 50.92360 17.03166 7169 ft 236 kts 88°
2026-05-08 09:54 50.92410 17.05767 7168 ft 236 kts 88°
2026-05-08 09:54 50.92459 17.08371 7168 ft 236 kts 88°
2026-05-08 09:54 50.92507 17.10986 7168 ft 236 kts 88°
2026-05-08 09:54 50.92386 17.13574 7149 ft 237 kts 103°
2026-05-08 09:55 50.91778 17.15993 7173 ft 237 kts 116°
2026-05-08 09:55 50.91000 17.18299 7091 ft 237 kts 119°
2026-05-08 09:55 50.90231 17.20593 6825 ft 234 kts 118°
2026-05-08 09:55 50.89505 17.22851 6564 ft 231 kts 117°
2026-05-08 09:56 50.88803 17.25084 6292 ft 223 kts 117°
2026-05-08 09:56 50.88123 17.27253 6056 ft 214 kts 116°
2026-05-08 09:56 50.87487 17.29283 6038 ft 201 kts 117°
2026-05-08 09:56 50.86873 17.31247 6047 ft 199 kts 116°
2026-05-08 09:57 50.85964 17.34587 5971 ft 200 kts 100°
2026-05-08 09:57 50.86219 17.36715 5990 ft 200 kts 63°
2026-05-08 09:57 50.87209 17.38204 5998 ft 199 kts 27°
2026-05-08 09:58 50.88546 17.38497 6010 ft 195 kts 353°
2026-05-08 09:58 50.89863 17.37986 6014 ft 194 kts 341°
2026-05-08 09:58 50.91107 17.37200 5989 ft 193 kts 330°
2026-05-08 09:58 50.92146 17.35875 6010 ft 192 kts 317°
2026-05-08 09:59 50.93120 17.34426 5999 ft 192 kts 316°
2026-05-08 09:59 50.94094 17.32980 5915 ft 192 kts 316°
2026-05-08 09:59 50.95054 17.31552 5816 ft 191 kts 316°
2026-05-08 09:59 50.96018 17.30113 5717 ft 190 kts 316°
2026-05-08 10:00 50.96971 17.28671 5620 ft 189 kts 314°
2026-05-08 10:00 50.97832 17.27082 5424 ft 190 kts 308°
2026-05-08 10:00 50.98595 17.25393 5175 ft 188 kts 304°
2026-05-08 10:00 50.99274 17.23676 5011 ft 178 kts 301°
2026-05-08 10:01 50.99878 17.21999 4745 ft 172 kts 299°
2026-05-08 10:01 51.00435 17.20350 4493 ft 167 kts 298°
2026-05-08 10:01 51.00962 17.18726 4266 ft 164 kts 297°
2026-05-08 10:01 51.01476 17.17114 4067 ft 164 kts 297°
2026-05-08 10:02 51.01989 17.15496 3864 ft 164 kts 297°
2026-05-08 10:02 51.02501 17.13861 3657 ft 164 kts 297°
2026-05-08 10:02 51.03004 17.12240 3439 ft 162 kts 297°
2026-05-08 10:02 51.03500 17.10634 3233 ft 161 kts 297°
2026-05-08 10:03 51.03989 17.09041 3025 ft 161 kts 297°
2026-05-08 10:03 51.04479 17.07440 2802 ft 161 kts 297°
2026-05-08 10:03 51.04959 17.05874 2568 ft 159 kts 297°
2026-05-08 10:03 51.05447 17.04287 2387 ft 161 kts 297°
2026-05-08 10:04 51.05943 17.02676 2196 ft 163 kts 297°
2026-05-08 10:04 51.06443 17.01048 1982 ft 164 kts 297°
2026-05-08 10:04 51.06942 16.99425 1754 ft 161 kts 296°
2026-05-08 10:04 51.07414 16.97887 1562 ft 148 kts 297°
2026-05-08 10:05 51.07857 16.96440 1418 ft 144 kts 297°
2026-05-08 10:05 51.08294 16.95016 1173 ft 143 kts 296°
2026-05-08 10:05 51.08729 16.93600 966 ft 142 kts 297°
2026-05-08 10:05 51.09157 16.92207 781 ft 142 kts 297°
2026-05-08 10:06 51.09594 16.90781 592 ft 142 kts 296°
2026-05-08 10:06 51.10023 16.89381 424 ft 135 kts 297°
2026-05-08 10:06 51.10347 16.88327 418 ft 77 kts 295°
2026-05-08 10:06 51.10526 16.87736 418 ft 52 kts 296°
2026-05-08 10:07 51.10621 16.87426 418 ft 19 kts 296°
2026-05-08 10:07 51.10690 16.87250 418 ft 17 kts 342°
2026-05-08 10:07 51.10810 16.87305 418 ft 20 kts 26°
2026-05-08 10:07 51.10898 16.87375 418 ft 8 kts 27°
2026-05-08 10:08 51.10950 16.87447 418 ft 12 kts 68°
2026-05-08 10:08 51.10975 16.87515 418 ft 8 kts 26°
2026-05-08 10:08 51.11015 16.87546 418 ft 0 kts 26°